CYAM

Sault Ste. Marie International Airport

Airport
ICAO code
CYAM
IATA Code
YAM
Summary
ICAO Region
NAM
ICAO Territory
Location

Sault Ste. Marie, Ontario,

Serving
Sault Ste. Marie
Elevation
630 ft
Coordinates
46° 29' 6" N , 84° 30' 34" W
KCC
Airport BS
Bird Strike
Airport CFIT
Altimeter Temperature Error Correction
Airport GND
Aircraft Ground De/Anti Icing
Metar
CYAM 161200Z VRB02KT 20SM FEW170 BKN250 00/00 A3023 RMK AC2CI4 SLP247

Description

Regional airport located 8 miles west of Sault Ste. Marie, Ontario, Canada.

Climatology

Humid Continental climate (Köppen climate classification Dfb) - Variable weather patterns and a large seasonal temperature variance. Summers are often warm and humid with frequent thunderstorms and winters can be very cold with frequent snowfall and persistent snow cover.

Runways

Designator Length Width Surface Rops
4/22 1829 61 ASP Yes/Yes
12/30 1829 61 ASP Yes/Yes

SKYbrary Partners:

Safety knowledge contributed by: